User: anonymous   Login
Location: Strawberry
(45.6646°N, 111.9596°W)
Time: 06:27:43
(UTC+00:00)
Language:

PCSat - Orbit

View from above orbital plane
View from above orbital plane
View from above satellite
View from above satellite

Ground track
Ground track

The orbit data is extracted from the following two-line orbital elements,

1 26931U 01043C   22339.71915658  .00000127  00000-0  80202-4 0  9996
2 26931  67.0515 336.3128 0005243 270.9981  89.0520 14.30771083105906
Epoch (UTC): 05 December 2022 17:15:35
Eccentricity: 0.0005243
inclination: 67.0515°
perigee height: 785 km
apogee height: 793 km
right ascension of ascending node: 336.3128°
argument of perigee: 270.9981°
revolutions per day: 14.30771083
mean anomaly at epoch: 89.0520°
orbit number at epoch: 10590

The dashed part of the orbit path shows where the satellite is in the earth's shadow,  

DLR